M I D A S
Marine Information and Data Acquisition System
Tripno 1681 of the Zeeleeuw from 2009-04-24 06:37:32 to 2009-04-24 08:38:40
Back to CruiseResearch ActivitiesStationsMapUnderway DataData graphs

EquipmentUnitsComments
TimeDGPSUTC
LatitudeDGPSDM.mWGS84
LongitudeDGPSDM.mWGS84
SpeedMeteo Stationm/sRelative wind speed
DirectionMeteo StationdegRelative wind direction
TemperatureMeteo Stationdeg CelciusAir temperature
PressureMeteo StationPaAtmospheric pressure
HumidityMeteo Station%Relative humidity
Missing or incorrect values are displayed as -999
Metereological data collected by the RV Zeeleeuw from 2009-04-24 06:44:10 to 2009-04-24 11:29:50
                                                                                    Next 1000 lines
Time Latitude Longitude Speed Direction Temperature Pressure Humidity
2009-04-24 06:44:20 51°13.661 2°55.957 4.3 335 10.8 102050 68
2009-04-24 06:44:25 51°13.662 2°55.955 4 343 10.8 102050 68
2009-04-24 06:44:30 51°13.662 2°55.952 3.9 339 10.8 102050 68
2009-04-24 06:44:35 51°13.664 2°55.947 3.7 345 10.8 102050 68
2009-04-24 06:44:40 51°13.665 2°55.942 4.1 344 10.8 102050 68
2009-04-24 06:44:45 51°13.667 2°55.936 3.8 336 10.8 102050 68
2009-04-24 06:44:50 51°13.669 2°55.93 2.9 327 10.8 102050 68
2009-04-24 06:44:55 51°13.671 2°55.923 3.2 326 10.8 102050 68
2009-04-24 06:45:00 51°13.674 2°55.916 2.8 320 10.8 102050 68
2009-04-24 06:45:05 51°13.676 2°55.909 2.5 330 10.8 102050 68
2009-04-24 06:45:10 51°13.678 2°55.902 2.6 334 10.8 102050 68
2009-04-24 06:45:15 51°13.68 2°55.894 4.5 346 10.8 102050 68
2009-04-24 06:45:20 51°13.682 2°55.886 3.9 337 10.8 102050 68
2009-04-24 06:45:25 51°13.683 2°55.879 3.1 340 10.8 102050 68
2009-04-24 06:45:30 51°13.685 2°55.871 3 350 10.8 102050 68
2009-04-24 06:45:35 51°13.686 2°55.864 3.3 339 10.8 102050 68
2009-04-24 06:45:40 51°13.687 2°55.857 2.9 2 10.8 102050 68
2009-04-24 06:45:45 51°13.687 2°55.849 4.7 341 10.8 102050 68
2009-04-24 06:45:50 51°13.688 2°55.842 4.6 354 10.8 102050 68
2009-04-24 06:45:55 51°13.688 2°55.834 5 351 10.8 102050 68
2009-04-24 06:46:00 51°13.689 2°55.826 4.2 341 10.8 102050 68
2009-04-24 06:46:05 51°13.689 2°55.819 4.8 345 10.8 102050 68
2009-04-24 06:46:10 51°13.689 2°55.811 4.8 349 10.8 102050 69
2009-04-24 06:46:15 51°13.689 2°55.803 5.4 355 10.8 102050 69
2009-04-24 06:46:20 51°13.69 2°55.796 6.5 359 10.8 102050 68
2009-04-24 06:46:25 51°13.69 2°55.789 6.2 354 10.8 102050 68
2009-04-24 06:46:30 51°13.69 2°55.782 4.7 357 10.8 102050 68
2009-04-24 06:46:35 51°13.69 2°55.775 4.9 2 10.8 102050 68
2009-04-24 06:46:39 51°13.69 2°55.77 4.1 2 10.7 102050 68
2009-04-24 06:46:44 51°13.69 2°55.764 5.4 357 10.7 102050 68
2009-04-24 06:46:49 51°13.689 2°55.759 5.4 358 10.7 102040 68
2009-04-24 06:46:55 51°13.69 2°55.756 4.4 358 10.7 102040 68
2009-04-24 06:46:59 51°13.69 2°55.755 5.7 3 10.7 102050 68
2009-04-24 06:47:04 51°13.691 2°55.754 5.3 2 10.7 102050 68
2009-04-24 06:47:09 51°13.692 2°55.754 5.7 4 10.7 102050 68
2009-04-24 06:47:14 51°13.693 2°55.754 5.7 7 10.7 102050 68
2009-04-24 06:47:19 51°13.694 2°55.755 6.4 10 10.7 102040 69
2009-04-24 06:47:24 51°13.696 2°55.755 7.7 13 10.7 102040 69
2009-04-24 06:47:28 51°13.697 2°55.756 8.1 21 10.7 102040 70
2009-04-24 06:47:33 51°13.698 2°55.756 7.5 15 10.7 102040 70
2009-04-24 06:47:38 51°13.699 2°55.756 7.3 20 10.7 102050 70
2009-04-24 06:47:43 51°13.699 2°55.755 6.9 25 10.7 102050 70
2009-04-24 06:47:48 51°13.699 2°55.754 6.1 31 10.7 102050 70
2009-04-24 06:47:52 51°13.699 2°55.753 6.6 27 10.7 102050 70
2009-04-24 06:47:57 51°13.699 2°55.752 7 30 10.7 102050 70
2009-04-24 06:48:03 51°13.7 2°55.751 6.8 27 10.7 102050 70
2009-04-24 06:48:07 51°13.701 2°55.75 6.1 30 10.7 102050 70
2009-04-24 06:48:12 51°13.703 2°55.75 6.8 35 10.7 102050 70
2009-04-24 06:48:17 51°13.705 2°55.748 5.7 38 10.7 102050 69
2009-04-24 06:48:22 51°13.708 2°55.746 6.4 43 10.7 102050 69
2009-04-24 06:48:27 51°13.712 2°55.744 5 44 10.7 102050 68
2009-04-24 06:48:31 51°13.714 2°55.742 5.8 38 10.7 102050 68
2009-04-24 06:48:36 51°13.719 2°55.737 4.8 33 10.7 102050 69
2009-04-24 06:48:41 51°13.724 2°55.733 5 33 10.7 102050 69
2009-04-24 06:48:46 51°13.729 2°55.727 5.3 37 10.7 102050 69
2009-04-24 06:48:51 51°13.736 2°55.721 3.8 41 10.7 102050 69
2009-04-24 06:48:55 51°13.741 2°55.715 4.7 34 10.7 102050 69
2009-04-24 06:49:01 51°13.75 2°55.707 3.2 29 10.7 102050 69
2009-04-24 06:49:06 51°13.758 2°55.7 2.7 38 10.7 102050 70
2009-04-24 06:49:11 51°13.766 2°55.693 3 34 10.7 102050 70
2009-04-24 06:49:16 51°13.774 2°55.685 3.1 38 10.7 102050 69
2009-04-24 06:49:21 51°13.783 2°55.678 3.6 32 10.7 102050 69
2009-04-24 06:49:26 51°13.792 2°55.671 3.2 37 10.7 102050 69
2009-04-24 06:49:31 51°13.801 2°55.664 2.6 36 10.7 102050 69
2009-04-24 06:49:36 51°13.811 2°55.657 2.7 35 10.7 102050 69
2009-04-24 06:49:41 51°13.82 2°55.65 2.6 12 10.7 102050 69
2009-04-24 06:49:46 51°13.83 2°55.643 2.7 24 10.7 102050 69
2009-04-24 06:49:51 51°13.839 2°55.636 3 21 10.7 102050 69
2009-04-24 06:49:55 51°13.847 2°55.63 3.7 20 10.7 102050 69
2009-04-24 06:50:01 51°13.858 2°55.622 3.6 351 10.7 102050 69
2009-04-24 06:50:06 51°13.868 2°55.614 1.6 10 10.8 102050 69
2009-04-24 06:50:11 51°13.878 2°55.607 1.9 343 10.8 102050 69
2009-04-24 06:50:16 51°13.888 2°55.599 1.3 15 10.8 102050 69
2009-04-24 06:50:21 51°13.898 2°55.592 3.2 346 10.8 102050 69
2009-04-24 06:50:26 51°13.908 2°55.584 3.2 346 10.8 102050 69
2009-04-24 06:50:31 51°13.917 2°55.575 2.7 8 10.8 102050 69
2009-04-24 06:50:35 51°13.925 2°55.569 3.3 9 10.8 102050 68
2009-04-24 06:50:41 51°13.937 2°55.56 3.6 12 10.8 102050 68
2009-04-24 06:50:46 51°13.947 2°55.552 3.9 18 10.8 102050 68
2009-04-24 06:50:51 51°13.958 2°55.544 4.5 23 10.8 102050 68
2009-04-24 06:50:55 51°13.966 2°55.538 5.7 21 10.8 102050 68
2009-04-24 06:51:00 51°13.976 2°55.531 5.1 29 10.8 102050 68
2009-04-24 06:51:06 51°13.988 2°55.522 5.3 28 10.8 102050 68
2009-04-24 06:51:11 51°13.998 2°55.514 4.2 31 10.8 102050 68
2009-04-24 06:51:16 51°14.008 2°55.508 5.7 27 10.8 102050 68
2009-04-24 06:51:20 51°14.016 2°55.502 4.2 35 10.8 102050 68
2009-04-24 06:51:26 51°14.027 2°55.492 3.6 35 10.8 102050 68
2009-04-24 06:51:31 51°14.037 2°55.484 5 31 10.8 102050 68
2009-04-24 06:51:36 51°14.047 2°55.476 4.1 31 10.8 102050 68
2009-04-24 06:51:41 51°14.057 2°55.469 3.3 28 10.8 102050 68
2009-04-24 06:51:46 51°14.068 2°55.461 3.8 32 10.8 102050 67
2009-04-24 06:51:51 51°14.078 2°55.454 3.3 34 10.8 102050 67
2009-04-24 06:51:56 51°14.089 2°55.446 3.3 32 10.8 102050 67
2009-04-24 06:52:01 51°14.099 2°55.438 3.5 43 10.8 102050 67
2009-04-24 06:52:06 51°14.109 2°55.428 2.7 38 10.8 102050 67
2009-04-24 06:52:11 51°14.12 2°55.42 2.5 34 10.8 102050 67
2009-04-24 06:52:16 51°14.13 2°55.411 2.3 27 10.8 102050 67
2009-04-24 06:52:21 51°14.14 2°55.402 3 18 10.8 102050 67
2009-04-24 06:52:26 51°14.151 2°55.392 3.8 37 10.8 102050 68
2009-04-24 06:52:31 51°14.161 2°55.383 3 34 10.8 102050 68
2009-04-24 06:52:35 51°14.169 2°55.374 2.8 42 10.8 102050 68
2009-04-24 06:52:40 51°14.178 2°55.364 3.1 45 10.8 102050 68
2009-04-24 06:52:46 51°14.19 2°55.351 2.6 43 10.8 102050 69
2009-04-24 06:52:51 51°14.199 2°55.34 2.4 36 10.8 102050 69
2009-04-24 06:52:56 51°14.208 2°55.329 2.5 21 10.8 102050 68
2009-04-24 06:53:01 51°14.218 2°55.317 1.7 32 10.8 102050 68
2009-04-24 06:53:06 51°14.227 2°55.305 1.8 7 10.8 102050 68
2009-04-24 06:53:11 51°14.236 2°55.292 2.1 13 10.8 102050 68
2009-04-24 06:53:16 51°14.245 2°55.28 1.9 24 10.8 102050 68
2009-04-24 06:53:21 51°14.254 2°55.266 2.3 23 10.8 102050 68
2009-04-24 06:53:26 51°14.262 2°55.253 2.3 24 10.8 102050 68
2009-04-24 06:53:31 51°14.271 2°55.239 3.1 33 10.8 102050 68
2009-04-24 06:53:36 51°14.28 2°55.225 1.8 34 10.8 102050 68
2009-04-24 06:53:41 51°14.288 2°55.21 1.8 37 10.8 102050 68
2009-04-24 06:53:46 51°14.297 2°55.195 1.6 38 10.8 102050 68
2009-04-24 06:53:51 51°14.305 2°55.18 1.4 38 10.8 102050 68
2009-04-24 06:53:56 51°14.313 2°55.164 1.4 36 10.9 102050 68
2009-04-24 06:54:00 51°14.319 2°55.152 1.2 37 10.9 102050 68
2009-04-24 06:54:06 51°14.328 2°55.132 1.2 29 10.9 102050 68
2009-04-24 06:54:11 51°14.336 2°55.116 1.3 11 10.9 102050 68
2009-04-24 06:54:16 51°14.344 2°55.1 1.2 11 10.9 102050 68
2009-04-24 06:54:21 51°14.352 2°55.084 1.1 11 10.9 102050 68
2009-04-24 06:54:26 51°14.36 2°55.067 1.2 30 10.9 102050 68
2009-04-24 06:54:31 51°14.367 2°55.05 0.6 29 10.9 102050 68
2009-04-24 06:54:36 51°14.375 2°55.033 0.6 29 10.9 102050 68
2009-04-24 06:54:41 51°14.382 2°55.015 0.4 30 10.9 102050 68
2009-04-24 06:54:46 51°14.389 2°54.997 0.2 30 10.9 102050 68
2009-04-24 06:54:51 51°14.396 2°54.978 0.5 43 10.9 102050 68
2009-04-24 06:54:56 51°14.403 2°54.959 0.5 43 10.9 102050 68
2009-04-24 06:55:00 51°14.408 2°54.944 0.6 58 10.9 102050 68
2009-04-24 06:55:06 51°14.416 2°54.92 0.9 257 11 102050 68
2009-04-24 06:55:11 51°14.422 2°54.898 1.1 308 11 102050 68
2009-04-24 06:55:16 51°14.426 2°54.876 2 21 11 102050 68
2009-04-24 06:55:20 51°14.429 2°54.858 3.8 309 11 102050 68
2009-04-24 06:55:26 51°14.431 2°54.83 2.8 251 11 102050 68
2009-04-24 06:55:31 51°14.432 2°54.805 3.5 303 11 102050 68
2009-04-24 06:55:35 51°14.432 2°54.785 3.7 246 11 102060 68
2009-04-24 06:55:40 51°14.431 2°54.76 4.2 302 11 102060 68
2009-04-24 06:55:46 51°14.429 2°54.73 6.2 20 11.1 102050 69
2009-04-24 06:55:51 51°14.426 2°54.704 6.3 304 11.1 102050 69
2009-04-24 06:55:55 51°14.423 2°54.684 6.5 252 11.1 102050 68
2009-04-24 06:56:01 51°14.417 2°54.653 6.3 307 11.1 102050 68
2009-04-24 06:56:05 51°14.412 2°54.633 8.6 25 11.1 102050 68
2009-04-24 06:56:11 51°14.404 2°54.603 6.6 305 11.1 102050 68
2009-04-24 06:56:16 51°14.397 2°54.578 7.4 21 11.1 102050 68
2009-04-24 06:56:21 51°14.389 2°54.553 7.8 305 11.1 102050 68
2009-04-24 06:56:26 51°14.382 2°54.528 6.3 21 11.2 102050 68
2009-04-24 06:56:31 51°14.375 2°54.502 6.2 307 11.2 102050 68
2009-04-24 06:56:35 51°14.369 2°54.482 6.1 20 11.2 102040 67
2009-04-24 06:56:41 51°14.361 2°54.451 7.4 310 11.2 102040 67
2009-04-24 06:56:46 51°14.353 2°54.426 5.8 22 11.2 102050 67
2009-04-24 06:56:51 51°14.346 2°54.4 7.1 304 11.2 102050 67
2009-04-24 06:56:56 51°14.338 2°54.374 5.8 26 11.2 102050 66
2009-04-24 06:57:01 51°14.331 2°54.348 7.1 308 11.2 102050 66
2009-04-24 06:57:06 51°14.324 2°54.323 7 19 11.2 102050 66
2009-04-24 06:57:11 51°14.316 2°54.297 5.7 310 11.2 102050 66
2009-04-24 06:57:15 51°14.31 2°54.276 5.5 18 11.2 102050 67
2009-04-24 06:57:20 51°14.303 2°54.25 7.9 308 11.2 102050 67
2009-04-24 06:57:26 51°14.294 2°54.218 7.5 22 11.2 102050 66
2009-04-24 06:57:31 51°14.286 2°54.192 7.2 307 11.2 102050 66
2009-04-24 06:57:35 51°14.28 2°54.171 8.3 22 11.2 102050 66
2009-04-24 06:57:41 51°14.271 2°54.14 6.6 281 11.2 102050 66
2009-04-24 06:57:46 51°14.264 2°54.114 6 20 11.2 102050 66
2009-04-24 06:57:51 51°14.256 2°54.088 6.6 307 11.2 102050 66
2009-04-24 06:57:56 51°14.249 2°54.062 5.1 27 11.2 102050 66
2009-04-24 06:58:01 51°14.241 2°54.036 5.5 304 11.2 102050 66
2009-04-24 06:58:06 51°14.234 2°54.009 6.8 26 11.2 102050 65
2009-04-24 06:58:11 51°14.226 2°53.984 6.6 303 11.2 102050 65
2009-04-24 06:58:15 51°14.219 2°53.963 7.1 20 11.2 102040 65
2009-04-24 06:58:21 51°14.21 2°53.932 6.6 306 11.2 102040 65
2009-04-24 06:58:26 51°14.202 2°53.906 6.5 21 11.2 102040 65
2009-04-24 06:58:31 51°14.193 2°53.88 7 308 11.2 102040 65
2009-04-24 06:58:36 51°14.185 2°53.854 9 25 11.2 102040 65
2009-04-24 06:58:41 51°14.177 2°53.829 7.5 302 11.2 102040 65
2009-04-24 06:58:46 51°14.168 2°53.803 8.5 25 11.2 102050 65
2009-04-24 06:58:51 51°14.16 2°53.777 7 303 11.2 102050 65
2009-04-24 06:58:56 51°14.151 2°53.752 7.7 247 11.2 102050 66
2009-04-24 06:59:01 51°14.142 2°53.726 7.6 308 11.2 102050 66
2009-04-24 06:59:06 51°14.133 2°53.701 5.9 24 11.2 102040 66
2009-04-24 06:59:11 51°14.125 2°53.675 5.8 304 11.2 102040 66
2009-04-24 06:59:15 51°14.118 2°53.655 5.8 27 11.2 102050 66
2009-04-24 06:59:21 51°14.108 2°53.624 7.5 301 11.2 102050 66
2009-04-24 06:59:26 51°14.099 2°53.598 6 28 11.2 102040 65
2009-04-24 06:59:31 51°14.091 2°53.572 5.9 302 11.2 102040 65
2009-04-24 06:59:35 51°14.084 2°53.552 7 23 11.2 102040 66
2009-04-24 06:59:41 51°14.074 2°53.521 7.8 305 11.2 102040 66
2009-04-24 06:59:46 51°14.066 2°53.495 6.6 28 11.2 102040 66
2009-04-24 06:59:51 51°14.057 2°53.469 6.7 310 11.2 102040 66
2009-04-24 06:59:56 51°14.049 2°53.443 6.5 24 11.2 102040 65
2009-04-24 07:00:01 51°14.04 2°53.417 6.1 281 11.2 102040 65
2009-04-24 07:00:06 51°14.032 2°53.392 6.9 27 11.2 102040 66
2009-04-24 07:00:11 51°14.023 2°53.366 7.3 308 11.2 102040 66
2009-04-24 07:00:16 51°14.015 2°53.34 7.1 22 11.2 102040 66
2009-04-24 07:00:21 51°14.006 2°53.314 6.3 304 11.2 102040 66
2009-04-24 07:00:26 51°13.998 2°53.289 6.4 20 11.2 102040 66
2009-04-24 07:00:31 51°13.989 2°53.263 6.1 304 11.2 102040 66
2009-04-24 07:00:36 51°13.981 2°53.237 7 24 11.2 102040 66
2009-04-24 07:00:40 51°13.975 2°53.216 6 302 11.2 102040 66
2009-04-24 07:00:46 51°13.965 2°53.185 7.4 22 11.2 102040 67
2009-04-24 07:00:51 51°13.957 2°53.158 7.1 305 11.2 102040 67
2009-04-24 07:00:56 51°13.948 2°53.132 6.4 21 11.2 102040 67
2009-04-24 07:01:00 51°13.942 2°53.112 6.1 304 11.2 102040 67
2009-04-24 07:01:06 51°13.932 2°53.08 6.4 22 11.2 102040 67
2009-04-24 07:01:11 51°13.924 2°53.054 7.2 307 11.2 102040 67
2009-04-24 07:01:16 51°13.915 2°53.028 5.6 20 11.2 102040 66
2009-04-24 07:01:21 51°13.907 2°53.002 5.5 309 11.2 102040 66
2009-04-24 07:01:26 51°13.899 2°52.976 7 27 11.2 102040 66
2009-04-24 07:01:31 51°13.891 2°52.95 7 305 11.2 102040 66
2009-04-24 07:01:36 51°13.883 2°52.924 6.4 20 11.2 102040 67
2009-04-24 07:01:41 51°13.874 2°52.898 6.8 303 11.2 102040 67
2009-04-24 07:01:46 51°13.866 2°52.871 7.9 245 11.2 102040 67
2009-04-24 07:01:51 51°13.858 2°52.845 7.9 304 11.2 102040 67
2009-04-24 07:01:55 51°13.852 2°52.824 7.4 25 11.2 102040 67
2009-04-24 07:02:00 51°13.844 2°52.798 9.3 305 11.2 102040 67
2009-04-24 07:02:06 51°13.833 2°52.767 9.7 246 11.2 102040 67
2009-04-24 07:02:11 51°13.825 2°52.741 8.8 303 11.2 102040 67
2009-04-24 07:02:15 51°13.818 2°52.721 6.7 20 11.2 102040 67
2009-04-24 07:02:20 51°13.81 2°52.695 8.6 310 11.2 102040 67
2009-04-24 07:02:25 51°13.801 2°52.669 8.4 19 11.2 102040 66
2009-04-24 07:02:31 51°13.79 2°52.638 7.4 308 11.2 102040 66
2009-04-24 07:02:35 51°13.783 2°52.617 6.3 22 11.2 102040 66
2009-04-24 07:02:41 51°13.773 2°52.587 7.5 303 11.2 102040 66
2009-04-24 07:02:45 51°13.766 2°52.566 7.3 244 11.2 102040 66
2009-04-24 07:02:51 51°13.755 2°52.535 5.8 301 11.2 102040 66
2009-04-24 07:02:56 51°13.747 2°52.509 6.7 27 11.2 102040 66
2009-04-24 07:03:01 51°13.738 2°52.484 6.6 302 11.2 102040 66
2009-04-24 07:03:06 51°13.729 2°52.458 7.1 21 11.2 102040 65
2009-04-24 07:03:11 51°13.721 2°52.432 6.5 310 11.2 102040 65
2009-04-24 07:03:16 51°13.712 2°52.407 7.5 18 11.2 102040 65
2009-04-24 07:03:21 51°13.703 2°52.381 7.9 303 11.2 102040 65
2009-04-24 07:03:26 51°13.694 2°52.355 6.2 25 11.2 102040 66
2009-04-24 07:03:31 51°13.686 2°52.329 5.6 304 11.2 102040 66
2009-04-24 07:03:35 51°13.679 2°52.309 5.6 20 11.2 102040 65
2009-04-24 07:03:41 51°13.668 2°52.278 7.7 307 11.2 102040 65
2009-04-24 07:03:46 51°13.659 2°52.252 6.9 26 11.2 102040 66
2009-04-24 07:03:51 51°13.651 2°52.226 8.6 304 11.2 102040 66
2009-04-24 07:03:55 51°13.644 2°52.206 7 24 11.2 102040 66
2009-04-24 07:04:01 51°13.633 2°52.175 8.9 302 11.2 102040 66
2009-04-24 07:04:06 51°13.625 2°52.149 9.2 26 11.2 102030 66
2009-04-24 07:04:11 51°13.616 2°52.123 6.8 303 11.2 102030 66
2009-04-24 07:04:16 51°13.607 2°52.097 6.1 26 11.2 102030 66
2009-04-24 07:04:21 51°13.599 2°52.072 7 308 11.2 102030 66
2009-04-24 07:04:26 51°13.59 2°52.046 7.7 25 11.3 102030 66
2009-04-24 07:04:31 51°13.581 2°52.02 7.5 304 11.3 102030 66
2009-04-24 07:04:36 51°13.572 2°51.994 8.2 24 11.2 102030 66
2009-04-24 07:04:40 51°13.565 2°51.973 8.8 310 11.2 102030 66
2009-04-24 07:04:46 51°13.555 2°51.942 7.8 19 11.3 102030 66
2009-04-24 07:04:51 51°13.546 2°51.916 9.1 310 11.3 102030 66
2009-04-24 07:04:56 51°13.538 2°51.89 9.1 25 11.2 102030 66
2009-04-24 07:05:00 51°13.531 2°51.87 7.8 306 11.2 102030 66
2009-04-24 07:05:06 51°13.521 2°51.839 7 245 11.2 102030 66
2009-04-24 07:05:11 51°13.512 2°51.813 7.5 302 11.2 102030 66
2009-04-24 07:05:16 51°13.504 2°51.787 6.4 23 11.2 102030 66
2009-04-24 07:05:21 51°13.495 2°51.761 6.6 302 11.2 102030 66
2009-04-24 07:05:26 51°13.487 2°51.735 6.5 27 11.2 102030 66
2009-04-24 07:05:31 51°13.478 2°51.708 5.9 302 11.2 102030 66
2009-04-24 07:05:36 51°13.47 2°51.683 7 27 11.2 102030 66
2009-04-24 07:05:41 51°13.461 2°51.657 8.4 308 11.2 102030 66
2009-04-24 07:05:46 51°13.452 2°51.632 7.7 25 11.2 102030 66
2009-04-24 07:05:51 51°13.441 2°51.61 7.3 303 11.2 102030 66
2009-04-24 07:05:55 51°13.433 2°51.594 8 23 11.2 102030 66
2009-04-24 07:06:01 51°13.419 2°51.574 8.6 308 11.2 102030 66
2009-04-24 07:06:06 51°13.407 2°51.559 8.8 27 11.2 102030 66
2009-04-24 07:06:11 51°13.395 2°51.546 7.5 304 11.2 102030 66
2009-04-24 07:06:15 51°13.385 2°51.537 7.4 27 11.2 102030 65
2009-04-24 07:06:20 51°13.373 2°51.527 8.8 307 11.2 102030 65
2009-04-24 07:06:26 51°13.36 2°51.518 7.3 26 11.2 102030 66
2009-04-24 07:06:31 51°13.349 2°51.512 8.9 307 11.2 102030 66
2009-04-24 07:06:35 51°13.341 2°51.507 9.3 24 11.2 102030 66
2009-04-24 07:06:41 51°13.33 2°51.502 8.6 304 11.2 102030 66
2009-04-24 07:06:46 51°13.321 2°51.498 7.7 20 11.2 102030 67
2009-04-24 07:06:51 51°13.312 2°51.494 8.7 308 11.2 102030 67
2009-04-24 07:06:55 51°13.305 2°51.491 9 25 11.2 102030 67
2009-04-24 07:07:01 51°13.296 2°51.488 7.3 306 11.2 102030 67
2009-04-24 07:07:05 51°13.29 2°51.486 8.7 22 11.2 102030 66
2009-04-24 07:07:11 51°13.281 2°51.483 7.8 302 11.2 102030 66
2009-04-24 07:07:16 51°13.274 2°51.481 8.1 26 11.2 102030 66
2009-04-24 07:07:21 51°13.267 2°51.479 7.8 303 11.2 102030 66
2009-04-24 07:07:26 51°13.261 2°51.477 7.7 317 11.2 102030 67
2009-04-24 07:07:31 51°13.254 2°51.476 7.6 307 11.2 102030 67
2009-04-24 07:07:36 51°13.249 2°51.474 8.9 316 11.2 102030 67
2009-04-24 07:07:41 51°13.243 2°51.473 7.1 310 11.2 102030 67
2009-04-24 07:07:46 51°13.237 2°51.472 8.6 19 11.2 102030 67
2009-04-24 07:07:51 51°13.232 2°51.471 9 305 11.2 102030 67
2009-04-24 07:07:55 51°13.228 2°51.47 8.4 27 11.2 102030 67
2009-04-24 07:08:01 51°13.222 2°51.468 7.9 310 11.2 102030 67
2009-04-24 07:08:06 51°13.217 2°51.467 9.5 22 11.1 102030 68
2009-04-24 07:08:11 51°13.212 2°51.465 8.6 306 11.1 102030 68
2009-04-24 07:08:16 51°13.207 2°51.464 7.9 21 11.1 102030 67
2009-04-24 07:08:20 51°13.204 2°51.462 7 307 11.1 102030 67
2009-04-24 07:08:26 51°13.198 2°51.46 6.6 25 11.1 102020 66
2009-04-24 07:08:31 51°13.194 2°51.458 9.7 303 11.1 102020 66
2009-04-24 07:08:36 51°13.19 2°51.456 7.5 25 11.1 102030 67
2009-04-24 07:08:40 51°13.186 2°51.454 8 308 11.1 102030 67
2009-04-24 07:08:46 51°13.182 2°51.452 8.4 22 11.1 102030 68
2009-04-24 07:08:51 51°13.178 2°51.449 8.2 307 11.1 102030 68
2009-04-24 07:08:56 51°13.173 2°51.447 7.8 24 11.1 102030 68
2009-04-24 07:09:00 51°13.17 2°51.444 7.1 305 11.1 102030 68
2009-04-24 07:09:06 51°13.166 2°51.441 6.4 25 11.1 102030 68
2009-04-24 07:09:11 51°13.162 2°51.438 7.4 306 11.1 102030 68
2009-04-24 07:09:16 51°13.158 2°51.435 8.3 22 11.1 102030 67
2009-04-24 07:09:20 51°13.155 2°51.433 6.2 304 11.1 102030 67
2009-04-24 07:09:26 51°13.151 2°51.429 5.9 24 11.1 102030 68
2009-04-24 07:09:31 51°13.148 2°51.426 5.6 310 11.1 102030 68
2009-04-24 07:09:35 51°13.145 2°51.424 6 25 11.1 102030 68
2009-04-24 07:09:41 51°13.141 2°51.42 8.4 309 11.1 102030 68
2009-04-24 07:09:46 51°13.137 2°51.417 7.6 22 11.1 102030 68
2009-04-24 07:09:51 51°13.134 2°51.414 8.7 303 11.1 102030 68
2009-04-24 07:09:55 51°13.131 2°51.412 8.7 25 11.1 102030 68
2009-04-24 07:10:01 51°13.128 2°51.408 7.5 304 11.1 102030 68
2009-04-24 07:10:06 51°13.125 2°51.405 7.2 25 11 102030 68
2009-04-24 07:10:11 51°13.121 2°51.401 8.6 302 11 102030 68
2009-04-24 07:10:16 51°13.118 2°51.398 7.6 25 11 102030 67
2009-04-24 07:10:21 51°13.115 2°51.394 7.8 304 11 102030 67
2009-04-24 07:10:26 51°13.113 2°51.391 7.1 24 11 102030 67
2009-04-24 07:10:31 51°13.11 2°51.387 6.6 307 11 102030 67
2009-04-24 07:10:35 51°13.107 2°51.385 6.3 22 11 102030 68
2009-04-24 07:10:41 51°13.104 2°51.38 6.4 303 11 102030 68
2009-04-24 07:10:46 51°13.101 2°51.377 5.4 28 11 102030 68
2009-04-24 07:10:51 51°13.098 2°51.373 6.5 303 11 102030 68
2009-04-24 07:10:55 51°13.095 2°51.37 7.2 26 11 102030 68
2009-04-24 07:11:00 51°13.092 2°51.366 6.3 304 11 102030 68
2009-04-24 07:11:06 51°13.087 2°51.361 6.4 20 11 102030 68
2009-04-24 07:11:11 51°13.083 2°51.357 6.3 309 11 102030 68
2009-04-24 07:11:15 51°13.08 2°51.353 6.7 20 11 102030 68
2009-04-24 07:11:21 51°13.074 2°51.347 7.7 304 11 102030 68
2009-04-24 07:11:25 51°13.071 2°51.343 6.5 244 11 102030 68
2009-04-24 07:11:31 51°13.065 2°51.336 6.8 307 11 102030 68
2009-04-24 07:11:35 51°13.061 2°51.332 6.7 19 11 102030 69
2009-04-24 07:11:41 51°13.054 2°51.325 8 305 11 102030 69
2009-04-24 07:11:46 51°13.049 2°51.318 8.4 20 11 102030 68
2009-04-24 07:11:51 51°13.044 2°51.312 7.3 305 11 102030 68
2009-04-24 07:11:56 51°13.039 2°51.304 8.2 25 11 102030 68
2009-04-24 07:12:01 51°13.034 2°51.297 7.1 308 11 102030 68
2009-04-24 07:12:06 51°13.029 2°51.289 7.5 249 11.1 102030 68
2009-04-24 07:12:11 51°13.024 2°51.281 7.4 304 11.1 102030 68
2009-04-24 07:12:16 51°13.019 2°51.273 6 21 11.1 102030 69
2009-04-24 07:12:21 51°13.014 2°51.264 6.8 304 11.1 102030 69
2009-04-24 07:12:26 51°13.009 2°51.256 6.5 251 11.1 102030 68
2009-04-24 07:12:31 51°13.004 2°51.247 7.5 305 11.1 102030 68
2009-04-24 07:12:36 51°12.999 2°51.238 6.7 253 11 102030 68
2009-04-24 07:12:41 51°12.995 2°51.229 6.4 306 11 102030 68
2009-04-24 07:12:46 51°12.991 2°51.22 8.1 255 11.1 102030 68
2009-04-24 07:12:51 51°12.986 2°51.211 8 310 11.1 102030 68
2009-04-24 07:12:55 51°12.983 2°51.203 8.9 260 11.1 102030 68
2009-04-24 07:13:01 51°12.978 2°51.192 4.5 303 11.1 102030 68
2009-04-24 07:13:06 51°12.974 2°51.183 6.4 260 11.1 102040 69
2009-04-24 07:13:11 51°12.971 2°51.174 5.5 307 11.1 102040 69
2009-04-24 07:13:16 51°12.967 2°51.165 5.5 262 11.1 102030 70
2009-04-24 07:13:20 51°12.964 2°51.157 4.2 304 11.1 102030 70
2009-04-24 07:13:26 51°12.96 2°51.146 4.5 263 11.1 102030 69
2009-04-24 07:13:31 51°12.957 2°51.137 4.3 305 11.1 102030 69
2009-04-24 07:13:36 51°12.954 2°51.128 3.9 266 11 102030 69
2009-04-24 07:13:40 51°12.951 2°51.12 5.9 305 11 102030 69
2009-04-24 07:13:46 51°12.948 2°51.109 4.3 263 11.1 102030 70
2009-04-24 07:13:51 51°12.945 2°51.1 4.7 302 11.1 102030 70
2009-04-24 07:13:56 51°12.942 2°51.091 3.3 264 11.1 102030 71
2009-04-24 07:14:00 51°12.94 2°51.084 4.4 303 11.1 102030 71
2009-04-24 07:14:06 51°12.937 2°51.073 5.4 260 11 102030 70
2009-04-24 07:14:11 51°12.934 2°51.064 3.6 304 11 102030 70
2009-04-24 07:14:15 51°12.932 2°51.057 5.1 263 11 102040 70
2009-04-24 07:14:21 51°12.929 2°51.046 4.7 304 11 102040 70
2009-04-24 07:14:26 51°12.926 2°51.038 5.4 260 11.1 102040 71
2009-04-24 07:14:31 51°12.924 2°51.029 4.6 310 11.1 102040 71
2009-04-24 07:14:36 51°12.921 2°51.021 4.1 265 11 102040 71
2009-04-24 07:14:41 51°12.919 2°51.012 5 303 11 102040 71
2009-04-24 07:14:46 51°12.916 2°51.004 3.9 266 11 102030 71
2009-04-24 07:14:51 51°12.913 2°50.996 5.8 311 11 102030 71
2009-04-24 07:14:56 51°12.911 2°50.988 4.7 267 11 102040 71
2009-04-24 07:15:01 51°12.908 2°50.98 5.4 306 11 102040 71
2009-04-24 07:15:06 51°12.906 2°50.972 5.1 266 11.1 102040 72
2009-04-24 07:15:11 51°12.903 2°50.964 4.1 303 11.1 102040 72
2009-04-24 07:15:15 51°12.901 2°50.958 4 266 11 102050 71
2009-04-24 07:15:21 51°12.898 2°50.949 4.3 303 11 102050 71
2009-04-24 07:15:26 51°12.896 2°50.941 4.6 263 11 102040 70
2009-04-24 07:15:31 51°12.893 2°50.934 5.6 304 11 102040 70
2009-04-24 07:15:35 51°12.891 2°50.928 4.8 261 11 102050 70
2009-04-24 07:15:40 51°12.888 2°50.92 5.8 305 11 102050 70
2009-04-24 07:15:46 51°12.885 2°50.911 5.7 265 11 102050 71
2009-04-24 07:15:51 51°12.883 2°50.904 5.8 305 11 102050 71
2009-04-24 07:15:55 51°12.881 2°50.898 6.3 270 11 102040 71
2009-04-24 07:16:01 51°12.878 2°50.889 4.2 306 11 102040 71
2009-04-24 07:16:06 51°12.875 2°50.881 3.7 264 11 102040 71
2009-04-24 07:16:11 51°12.873 2°50.874 2.6 303 11 102040 71
2009-04-24 07:16:15 51°12.87 2°50.868 4.7 263 11 102050 70
2009-04-24 07:16:20 51°12.868 2°50.861 5.6 310 11 102050 70
2009-04-24 07:16:26 51°12.865 2°50.852 5.3 264 11 102050 70
2009-04-24 07:16:31 51°12.862 2°50.845 5.4 310 11 102050 70
2009-04-24 07:16:35 51°12.861 2°50.839 6 267 11 102050 71
2009-04-24 07:16:41 51°12.858 2°50.83 3.7 303 11 102050 71
2009-04-24 07:16:46 51°12.855 2°50.823 4.5 264 11 102040 70
2009-04-24 07:16:51 51°12.853 2°50.815 5.8 301 11 102040 70
2009-04-24 07:16:56 51°12.85 2°50.808 5.5 265 11 102040 69
2009-04-24 07:17:01 51°12.848 2°50.801 5.6 308 11 102040 69
2009-04-24 07:17:06 51°12.845 2°50.794 4.7 264 11 102040 69
2009-04-24 07:17:11 51°12.843 2°50.786 6.1 308 11 102040 69
2009-04-24 07:17:16 51°12.84 2°50.779 6 268 11 102040 69
2009-04-24 07:17:21 51°12.838 2°50.772 5.1 307 11 102040 69
2009-04-24 07:17:26 51°12.836 2°50.764 6.7 267 11 102040 69
2009-04-24 07:17:31 51°12.833 2°50.757 4.8 308 11 102040 69
2009-04-24 07:17:35 51°12.831 2°50.751 6.2 267 10.9 102040 69
2009-04-24 07:17:40 51°12.829 2°50.744 6 308 10.9 102040 69
2009-04-24 07:17:46 51°12.826 2°50.735 7.3 270 10.9 102050 69
2009-04-24 07:17:51 51°12.824 2°50.728 6 296 10.9 102050 69
2009-04-24 07:17:55 51°12.822 2°50.722 4.6 266 10.9 102040 69
2009-04-24 07:18:01 51°12.82 2°50.713 5.9 309 10.9 102040 69
2009-04-24 07:18:06 51°12.817 2°50.706 5.7 267 10.9 102040 69
2009-04-24 07:18:11 51°12.815 2°50.698 4.4 308 10.9 102040 69
2009-04-24 07:18:15 51°12.813 2°50.692 4.7 265 10.9 102050 69
2009-04-24 07:18:21 51°12.81 2°50.684 6.5 303 10.9 102050 69
2009-04-24 07:18:26 51°12.808 2°50.676 5.3 269 10.9 102040 69
2009-04-24 07:18:31 51°12.806 2°50.669 5.3 311 10.9 102040 69
2009-04-24 07:18:36 51°12.803 2°50.662 3.6 265 10.9 102040 70
2009-04-24 07:18:41 51°12.801 2°50.655 3.8 307 10.9 102040 70
2009-04-24 07:18:46 51°12.799 2°50.648 4.7 268 10.9 102040 69
2009-04-24 07:18:51 51°12.796 2°50.64 4.2 285 10.9 102040 69
2009-04-24 07:18:55 51°12.795 2°50.634 4.4 265 10.9 102040 69
2009-04-24 07:19:01 51°12.792 2°50.626 5.8 309 10.9 102040 69
2009-04-24 07:19:05 51°12.79 2°50.62 5 266 10.9 102040 68
2009-04-24 07:19:11 51°12.787 2°50.612 3.7 306 10.9 102040 68
2009-04-24 07:19:16 51°12.785 2°50.604 4.1 263 10.9 102040 69
2009-04-24 07:19:21 51°12.783 2°50.597 4 306 10.9 102040 69
2009-04-24 07:19:26 51°12.78 2°50.59 4.5 262 10.9 102040 69
2009-04-24 07:19:31 51°12.778 2°50.583 4.5 306 10.9 102040 69
2009-04-24 07:19:36 51°12.776 2°50.576 4.1 262 10.9 102040 70
2009-04-24 07:19:41 51°12.774 2°50.569 3.7 308 10.9 102040 70
2009-04-24 07:19:46 51°12.771 2°50.562 3.9 263 10.9 102040 70
2009-04-24 07:19:51 51°12.769 2°50.555 3.3 303 10.9 102040 70
2009-04-24 07:19:55 51°12.768 2°50.549 3.5 264 10.9 102040 70
2009-04-24 07:20:01 51°12.765 2°50.54 3.2 302 10.9 102040 70
2009-04-24 07:20:06 51°12.763 2°50.533 3.4 267 10.9 102040 70
2009-04-24 07:20:11 51°12.76 2°50.526 4.4 301 10.9 102040 70
2009-04-24 07:20:15 51°12.759 2°50.52 4.8 265 10.9 102040 70
2009-04-24 07:20:21 51°12.756 2°50.511 3.9 307 10.9 102040 70
2009-04-24 07:20:26 51°12.754 2°50.504 3.7 266 10.9 102040 70
2009-04-24 07:20:31 51°12.752 2°50.497 4 305 10.9 102040 70
2009-04-24 07:20:36 51°12.75 2°50.49 4.4 263 10.9 102040 70
2009-04-24 07:20:41 51°12.748 2°50.483 5.9 304 10.9 102040 70
2009-04-24 07:20:46 51°12.746 2°50.476 4.1 264 11 102040 70
2009-04-24 07:20:51 51°12.743 2°50.469 5.1 285 11 102040 70
2009-04-24 07:20:56 51°12.741 2°50.461 4.5 264 11 102040 70
2009-04-24 07:21:01 51°12.739 2°50.454 4.2 308 11 102040 70
2009-04-24 07:21:06 51°12.737 2°50.447 5.3 265 11 102040 70
2009-04-24 07:21:11 51°12.735 2°50.44 5.8 310 11 102040 70
2009-04-24 07:21:16 51°12.733 2°50.432 5.1 266 11 102040 70
2009-04-24 07:21:21 51°12.731 2°50.425 5.2 302 11 102040 70
2009-04-24 07:21:26 51°12.729 2°50.418 4.7 265 11 102040 69
2009-04-24 07:21:31 51°12.726 2°50.411 4.5 303 11 102040 69
2009-04-24 07:21:36 51°12.724 2°50.404 4.1 265 11 102040 69
2009-04-24 07:21:40 51°12.723 2°50.398 5.4 305 11 102040 69
2009-04-24 07:21:46 51°12.72 2°50.389 5.2 267 11 102040 69
2009-04-24 07:21:51 51°12.718 2°50.382 6.2 305 11 102040 69
2009-04-24 07:21:56 51°12.716 2°50.375 4.9 268 11 102040 69
2009-04-24 07:22:01 51°12.714 2°50.368 5.6 307 11 102040 69
2009-04-24 07:22:06 51°12.711 2°50.36 5.2 267 11 102040 69
2009-04-24 07:22:11 51°12.709 2°50.353 6.1 311 11 102040 69
2009-04-24 07:22:16 51°12.707 2°50.346 6.4 328 11 102040 69
2009-04-24 07:22:20 51°12.705 2°50.34 5.1 307 11 102040 69
2009-04-24 07:22:26 51°12.703 2°50.332 5.1 267 11 102040 70
2009-04-24 07:22:31 51°12.701 2°50.325 5.1 304 11 102040 70
2009-04-24 07:22:35 51°12.699 2°50.319 4.7 267 11 102040 69
2009-04-24 07:22:40 51°12.697 2°50.312 4 307 11 102040 69
2009-04-24 07:22:46 51°12.694 2°50.303 5.1 268 11 102040 68
2009-04-24 07:22:51 51°12.692 2°50.296 4.5 285 11 102040 68
2009-04-24 07:22:55 51°12.69 2°50.29 4.7 266 11 102040 69
2009-04-24 07:23:01 51°12.687 2°50.282 5.2 305 11 102040 69
2009-04-24 07:23:06 51°12.685 2°50.274 3.9 264 11 102040 70
2009-04-24 07:23:11 51°12.683 2°50.267 4.4 302 11 102040 70
2009-04-24 07:23:16 51°12.681 2°50.26 4.1 263 11 102040 70
2009-04-24 07:23:21 51°12.679 2°50.253 4.2 308 11 102040 70
2009-04-24 07:23:26 51°12.676 2°50.246 3.6 265 11 102040 71
2009-04-24 07:23:31 51°12.674 2°50.238 4 304 11 102040 71
2009-04-24 07:23:35 51°12.672 2°50.233 4.5 266 11 102040 71
2009-04-24 07:23:41 51°12.67 2°50.224 4.7 306 11 102040 71
2009-04-24 07:23:46 51°12.667 2°50.217 5.2 269 11 102040 71
2009-04-24 07:23:51 51°12.665 2°50.21 3.9 302 11 102040 71
2009-04-24 07:23:55 51°12.663 2°50.204 5.2 266 11 102040 71
2009-04-24 07:24:01 51°12.661 2°50.195 4.2 301 11 102040 71
2009-04-24 07:24:06 51°12.659 2°50.188 4.7 266 11 102040 71
2009-04-24 07:24:11 51°12.656 2°50.18 4.9 303 11 102040 71
2009-04-24 07:24:15 51°12.655 2°50.175 5.3 268 11 102040 71
2009-04-24 07:24:21 51°12.652 2°50.166 5.9 301 11 102040 71
2009-04-24 07:24:26 51°12.65 2°50.159 5.7 269 11 102040 70
2009-04-24 07:24:31 51°12.648 2°50.151 5 301 11 102040 70
2009-04-24 07:24:35 51°12.646 2°50.145 4.7 267 11 102040 70
2009-04-24 07:24:40 51°12.643 2°50.138 3.8 305 11 102040 70
2009-04-24 07:24:46 51°12.641 2°50.13 4 260 11 102040 70
2009-04-24 07:24:51 51°12.639 2°50.122 3.6 285 11 102040 70
2009-04-24 07:24:55 51°12.637 2°50.116 3.6 262 11 102040 69
2009-04-24 07:25:00 51°12.635 2°50.109 4.5 304 11 102040 69
2009-04-24 07:25:06 51°12.632 2°50.1 4.4 268 11 102040 69
2009-04-24 07:25:11 51°12.63 2°50.093 4 305 11 102040 69
2009-04-24 07:25:15 51°12.628 2°50.087 3.4 265 11 102030 69
2009-04-24 07:25:21 51°12.626 2°50.079 3.9 306 11 102030 69
2009-04-24 07:25:25 51°12.624 2°50.073 3.9 265 11 102030 69
2009-04-24 07:25:31 51°12.621 2°50.064 4.8 307 11 102030 69
2009-04-24 07:25:36 51°12.619 2°50.057 4.4 262 11 102030 68
2009-04-24 07:25:41 51°12.617 2°50.049 3.9 304 11 102030 68
2009-04-24 07:25:46 51°12.615 2°50.042 3.9 261 11.1 102040 69
2009-04-24 07:25:51 51°12.612 2°50.035 5.2 304 11.1 102040 69
2009-04-24 07:25:56 51°12.61 2°50.028 5.6 257 11.1 102030 70
2009-04-24 07:26:01 51°12.608 2°50.02 3.8 307 11.1 102030 70
2009-04-24 07:26:06 51°12.606 2°50.013 3.6 262 11.1 102030 70
2009-04-24 07:26:11 51°12.604 2°50.006 4 302 11.1 102030 70
2009-04-24 07:26:16 51°12.601 2°49.999 6.5 258 11.1 102030 71
2009-04-24 07:26:21 51°12.599 2°49.992 5.1 305 11.1 102030 71
2009-04-24 07:26:26 51°12.597 2°49.984 6.2 259 11.1 102030 71
2009-04-24 07:26:31 51°12.595 2°49.977 5.3 308 11.1 102030 71
2009-04-24 07:26:35 51°12.593 2°49.971 5.5 260 11.1 102030 71
2009-04-24 07:26:41 51°12.591 2°49.962 4.5 308 11.1 102030 71
2009-04-24 07:26:46 51°12.589 2°49.955 5.6 260 11.1 102030 70
2009-04-24 07:26:51 51°12.587 2°49.947 5.5 284 11.1 102030 70
2009-04-24 07:26:56 51°12.585 2°49.94 4.7 262 11.2 102030 70
2009-04-24 07:27:01 51°12.583 2°49.933 3.7 307 11.2 102030 70
2009-04-24 07:27:06 51°12.58 2°49.926 4.3 263 11.2 102030 69
2009-04-24 07:27:11 51°12.579 2°49.918 3.3 307 11.2 102030 69
2009-04-24 07:27:16 51°12.576 2°49.911 4.5 266 11.2 102030 69
2009-04-24 07:27:21 51°12.574 2°49.903 4.9 303 11.2 102030 69
2009-04-24 07:27:26 51°12.572 2°49.896 4.4 267 11.2 102030 70
2009-04-24 07:27:31 51°12.57 2°49.889 4 303 11.2 102030 70
2009-04-24 07:27:36 51°12.568 2°49.881 4.3 266 11.2 102030 69
2009-04-24 07:27:40 51°12.567 2°49.875 3.3 302 11.2 102030 69
2009-04-24 07:27:46 51°12.564 2°49.866 4.1 263 11.2 102040 68
2009-04-24 07:27:51 51°12.562 2°49.859 3.7 302 11.2 102040 68
2009-04-24 07:27:56 51°12.56 2°49.852 4.5 263 11.2 102030 68
2009-04-24 07:28:00 51°12.559 2°49.846 4.4 302 11.2 102030 68
2009-04-24 07:28:06 51°12.557 2°49.837 4 265 11.2 102030 68
2009-04-24 07:28:11 51°12.555 2°49.83 4.7 301 11.2 102030 68
2009-04-24 07:28:16 51°12.553 2°49.823 3.9 266 11.2 102030 68
2009-04-24 07:28:21 51°12.551 2°49.815 4.1 309 11.2 102030 68
2009-04-24 07:28:26 51°12.549 2°49.808 3.8 266 11.2 102030 68
2009-04-24 07:28:31 51°12.547 2°49.801 3.8 309 11.2 102030 68
2009-04-24 07:28:36 51°12.545 2°49.793 4.3 263 11.2 102030 67
2009-04-24 07:28:41 51°12.543 2°49.786 4.2 300 11.2 102030 67
2009-04-24 07:28:46 51°12.541 2°49.779 4.1 265 11.2 102030 67
2009-04-24 07:28:51 51°12.539 2°49.771 3.6 279 11.2 102030 67
2009-04-24 07:28:55 51°12.537 2°49.766 3.9 266 11.2 102030 67
2009-04-24 07:29:01 51°12.535 2°49.757 6.2 307 11.2 102030 67
2009-04-24 07:29:06 51°12.533 2°49.75 3.3 263 11.2 102030 67
2009-04-24 07:29:11 51°12.531 2°49.742 3.9 308 11.2 102030 67
2009-04-24 07:29:15 51°12.529 2°49.737 3.6 266 11.2 102030 68
2009-04-24 07:29:20 51°12.527 2°49.729 4.2 301 11.2 102030 68
2009-04-24 07:29:26 51°12.525 2°49.721 3.9 266 11.3 102030 68
2009-04-24 07:29:31 51°12.523 2°49.713 3.9 304 11.3 102030 68
2009-04-24 07:29:35 51°12.521 2°49.708 3.5 266 11.3 102030 68
2009-04-24 07:29:40 51°12.519 2°49.7 3.7 307 11.3 102030 68
2009-04-24 07:29:46 51°12.517 2°49.692 3.6 268 11.2 102020 68
2009-04-24 07:29:51 51°12.515 2°49.684 3.2 308 11.2 102020 68
2009-04-24 07:29:55 51°12.514 2°49.678 4.1 258 11.3 102020 68
2009-04-24 07:30:01 51°12.511 2°49.67 4.1 310 11.3 102020 68
2009-04-24 07:30:06 51°12.509 2°49.662 3.7 264 11.2 102030 68
2009-04-24 07:30:11 51°12.507 2°49.655 3.2 304 11.2 102030 68
2009-04-24 07:30:16 51°12.505 2°49.648 3.4 265 11.3 102030 68
2009-04-24 07:30:21 51°12.503 2°49.641 4.4 304 11.3 102030 68
2009-04-24 07:30:26 51°12.501 2°49.633 4.8 267 11.3 102020 69
2009-04-24 07:30:31 51°12.499 2°49.626 3.5 309 11.3 102020 69
2009-04-24 07:30:36 51°12.497 2°49.619 3.9 266 11.3 102020 69
2009-04-24 07:30:41 51°12.495 2°49.611 5.1 307 11.3 102020 69
2009-04-24 07:30:46 51°12.493 2°49.604 4.7 20 11.3 102030 69
2009-04-24 07:30:51 51°12.492 2°49.597 4.3 280 11.3 102030 69
2009-04-24 07:30:55 51°12.49 2°49.591 3.3 263 11.3 102030 69
2009-04-24 07:31:01 51°12.488 2°49.582 3.8 302 11.3 102030 69
2009-04-24 07:31:06 51°12.486 2°49.575 4.5 265 11.3 102030 68
2009-04-24 07:31:11 51°12.484 2°49.568 4.5 304 11.3 102030 68
2009-04-24 07:31:15 51°12.483 2°49.562 3.2 263 11.3 102030 67
2009-04-24 07:31:21 51°12.48 2°49.554 3.3 303 11.3 102030 67
2009-04-24 07:31:26 51°12.478 2°49.546 3.9 270 11.3 102030 67
2009-04-24 07:31:31 51°12.476 2°49.539 3.3 304 11.3 102030 67
2009-04-24 07:31:35 51°12.474 2°49.534 2.8 265 11.3 102020 67
2009-04-24 07:31:41 51°12.472 2°49.525 3.5 302 11.3 102020 67
2009-04-24 07:31:46 51°12.47 2°49.518 3.1 264 11.3 102020 67
2009-04-24 07:31:51 51°12.468 2°49.511 3.3 308 11.3 102020 67
2009-04-24 07:31:55 51°12.467 2°49.505 3.4 266 11.3 102020 68
2009-04-24 07:32:01 51°12.465 2°49.497 3.9 308 11.3 102020 68
2009-04-24 07:32:06 51°12.463 2°49.489 4.6 269 11.3 102020 69
2009-04-24 07:32:11 51°12.461 2°49.482 3.3 310 11.3 102020 69
2009-04-24 07:32:16 51°12.459 2°49.475 3.4 262 11.4 102020 69
2009-04-24 07:32:21 51°12.457 2°49.468 3 304 11.4 102020 69
2009-04-24 07:32:26 51°12.455 2°49.461 3.4 267 11.4 102030 69
2009-04-24 07:32:31 51°12.453 2°49.454 2.9 303 11.4 102030 69
2009-04-24 07:32:36 51°12.451 2°49.447 3.8 263 11.4 102030 69
2009-04-24 07:32:41 51°12.449 2°49.44 3.8 303 11.4 102030 69
2009-04-24 07:32:46 51°12.447 2°49.433 3.4 266 11.4 102030 68
2009-04-24 07:32:51 51°12.446 2°49.426 3.6 278 11.4 102030 68
2009-04-24 07:32:56 51°12.444 2°49.419 3.2 262 11.4 102020 69
2009-04-24 07:33:01 51°12.442 2°49.412 4 304 11.4 102020 69
2009-04-24 07:33:06 51°12.44 2°49.405 3.5 265 11.4 102020 69
2009-04-24 07:33:11 51°12.438 2°49.398 3.2 301 11.4 102020 69
2009-04-24 07:33:15 51°12.436 2°49.392 3.6 262 11.4 102020 70
2009-04-24 07:33:21 51°12.434 2°49.384 3.6 309 11.4 102020 70
2009-04-24 07:33:26 51°12.432 2°49.377 3.5 262 11.4 102020 70
2009-04-24 07:33:31 51°12.43 2°49.37 5.3 309 11.4 102020 70
2009-04-24 07:33:36 51°12.428 2°49.362 4.6 261 11.4 102030 68
2009-04-24 07:33:41 51°12.426 2°49.356 4 303 11.4 102030 68
2009-04-24 07:33:46 51°12.424 2°49.349 3.1 263 11.4 102020 67
2009-04-24 07:33:51 51°12.422 2°49.342 4.6 309 11.4 102020 67
2009-04-24 07:33:56 51°12.421 2°49.335 5.4 263 11.4 102020 67
2009-04-24 07:34:00 51°12.419 2°49.329 3.4 304 11.4 102020 67
2009-04-24 07:34:06 51°12.417 2°49.321 4.4 263 11.4 102030 67
2009-04-24 07:34:11 51°12.415 2°49.314 3.2 308 11.4 102030 67
2009-04-24 07:34:16 51°12.413 2°49.307 4.1 269 11.4 102020 67
2009-04-24 07:34:20 51°12.411 2°49.301 4.3 302 11.4 102020 67
2009-04-24 07:34:26 51°12.409 2°49.293 3.7 264 11.4 102020 67
2009-04-24 07:34:31 51°12.407 2°49.286 4.1 302 11.4 102020 67
2009-04-24 07:34:36 51°12.405 2°49.279 4.7 268 11.4 102020 67
2009-04-24 07:34:41 51°12.403 2°49.272 4.7 309 11.4 102020 67
2009-04-24 07:34:46 51°12.402 2°49.265 4.7 266 11.4 102030 66
2009-04-24 07:34:51 51°12.4 2°49.258 4.1 280 11.4 102030 66
2009-04-24 07:34:55 51°12.398 2°49.252 5 267 11.4 102020 67
2009-04-24 07:35:01 51°12.396 2°49.244 3.5 303 11.4 102020 67
2009-04-24 07:35:06 51°12.394 2°49.237 4.6 267 11.5 102020 66
2009-04-24 07:35:11 51°12.392 2°49.23 4.4 303 11.5 102020 66
2009-04-24 07:35:16 51°12.39 2°49.223 4.1 260 11.5 102020 66
2009-04-24 07:35:21 51°12.388 2°49.215 4.2 310 11.5 102020 66
2009-04-24 07:35:26 51°12.387 2°49.209 4.1 266 11.5 102020 67
2009-04-24 07:35:31 51°12.385 2°49.202 3.1 310 11.5 102020 67
2009-04-24 07:35:35 51°12.383 2°49.196 3.8 267 11.5 102020 67
2009-04-24 07:35:41 51°12.381 2°49.187 4.2 304 11.5 102020 67
2009-04-24 07:35:46 51°12.379 2°49.18 3.9 264 11.5 102020 68
2009-04-24 07:35:51 51°12.377 2°49.173 4.5 306 11.5 102020 68
2009-04-24 07:35:55 51°12.376 2°49.168 3.9 263 11.5 102020 68
2009-04-24 07:36:01 51°12.374 2°49.159 5.4 305 11.5 102020 68
2009-04-24 07:36:06 51°12.372 2°49.152 3.5 269 11.5 102020 68
2009-04-24 07:36:11 51°12.37 2°49.145 3.9 306 11.5 102020 68
2009-04-24 07:36:16 51°12.368 2°49.138 3.8 267 11.5 102020 68
2009-04-24 07:36:21 51°12.366 2°49.131 4.7 305 11.5 102020 68
2009-04-24 07:36:26 51°12.364 2°49.124 4.6 268 11.5 102020 68
2009-04-24 07:36:31 51°12.363 2°49.117 4.5 302 11.5 102020 68
2009-04-24 07:36:36 51°12.361 2°49.11 3.8 265 11.5 102020 68
2009-04-24 07:36:41 51°12.359 2°49.103 3.3 304 11.5 102020 68
2009-04-24 07:36:46 51°12.357 2°49.096 3.1 264 11.5 102020 68
2009-04-24 07:36:51 51°12.355 2°49.089 4.9 285 11.5 102020 68
2009-04-24 07:36:56 51°12.354 2°49.082 3.7 262 11.5 102020 68
2009-04-24 07:37:01 51°12.352 2°49.075 3.8 303 11.5 102020 68
2009-04-24 07:37:06 51°12.35 2°49.068 2.8 262 11.5 102020 68
2009-04-24 07:37:11 51°12.348 2°49.061 4.4 307 11.5 102020 68
2009-04-24 07:37:16 51°12.347 2°49.054 3.4 265 11.5 102020 69
2009-04-24 07:37:21 51°12.345 2°49.047 4.1 303 11.5 102020 69
2009-04-24 07:37:26 51°12.343 2°49.04 5.7 267 11.5 102020 69
2009-04-24 07:37:31 51°12.342 2°49.033 4.1 310 11.5 102020 69
2009-04-24 07:37:36 51°12.34 2°49.026 4.1 268 11.5 102020 69
2009-04-24 07:37:40 51°12.338 2°49.021 5.2 302 11.5 102020 69
2009-04-24 07:37:46 51°12.336 2°49.013 3.6 263 11.5 102020 69
2009-04-24 07:37:51 51°12.335 2°49.006 3.7 310 11.5 102020 69
2009-04-24 07:37:56 51°12.333 2°48.999 3.8 267 11.5 102020 68
2009-04-24 07:38:00 51°12.331 2°48.993 3.1 306 11.5 102020 68
2009-04-24 07:38:06 51°12.329 2°48.985 6 260 11.5 102010 67
2009-04-24 07:38:11 51°12.327 2°48.978 5 303 11.5 102010 67
2009-04-24 07:38:16 51°12.326 2°48.971 5 265 11.5 102020 67
2009-04-24 07:38:20 51°12.324 2°48.965 5.3 309 11.5 102020 67
2009-04-24 07:38:26 51°12.322 2°48.957 3.8 263 11.5 102010 67
2009-04-24 07:38:31 51°12.321 2°48.95 3.8 308 11.5 102010 67
2009-04-24 07:38:36 51°12.319 2°48.943 5 264 11.5 102010 67
2009-04-24 07:38:40 51°12.317 2°48.938 6.9 303 11.5 102010 67
2009-04-24 07:38:46 51°12.315 2°48.93 7.4 260 11.5 102010 67
2009-04-24 07:38:51 51°12.313 2°48.923 4.6 284 11.5 102010 67
2009-04-24 07:38:55 51°12.312 2°48.918 5 265 11.6 102020 67
2009-04-24 07:39:01 51°12.31 2°48.909 4.8 304 11.6 102020 67
2009-04-24 07:39:06 51°12.308 2°48.902 3.6 263 11.6 102010 67
2009-04-24 07:39:11 51°12.306 2°48.896 4.5 308 11.6 102010 67
2009-04-24 07:39:16 51°12.305 2°48.889 3.8 265 11.6 102010 68
2009-04-24 07:39:21 51°12.303 2°48.882 4.6 304 11.6 102010 68
2009-04-24 07:39:26 51°12.301 2°48.875 4.6 263 11.6 102010 67
2009-04-24 07:39:31 51°12.3 2°48.869 4.1 308 11.6 102010 67
2009-04-24 07:39:36 51°12.298 2°48.862 5.4 267 11.6 102010 67
2009-04-24 07:39:41 51°12.296 2°48.855 4.8 309 11.6 102010 67
2009-04-24 07:39:46 51°12.295 2°48.849 6.2 267 11.6 102010 67
2009-04-24 07:39:51 51°12.293 2°48.842 5.4 310 11.6 102010 67
2009-04-24 07:39:56 51°12.291 2°48.835 4.6 266 11.6 102010 67
2009-04-24 07:40:01 51°12.29 2°48.829 4.5 304 11.6 102010 67
2009-04-24 07:40:06 51°12.288 2°48.822 5.2 264 11.6 102010 66
2009-04-24 07:40:11 51°12.287 2°48.815 4.3 303 11.6 102010 66
2009-04-24 07:40:15 51°12.285 2°48.81 3.7 265 11.6 102010 65
2009-04-24 07:40:21 51°12.284 2°48.802 5.7 305 11.6 102010 65
2009-04-24 07:40:26 51°12.282 2°48.795 3.7 263 11.6 102010 65
2009-04-24 07:40:31 51°12.28 2°48.789 4.2 303 11.6 102010 65
2009-04-24 07:40:36 51°12.279 2°48.782 5.5 267 11.6 102010 65
2009-04-24 07:40:41 51°12.277 2°48.776 4.3 309 11.6 102010 65
2009-04-24 07:40:46 51°12.276 2°48.769 4.8 267 11.6 102010 64
2009-04-24 07:40:51 51°12.274 2°48.763 4.5 279 11.6 102010 64
2009-04-24 07:40:56 51°12.273 2°48.756 3.5 266 11.5 102010 64
2009-04-24 07:41:01 51°12.271 2°48.75 4.6 308 11.5 102010 64
2009-04-24 07:41:06 51°12.269 2°48.743 4.1 266 11.5 102010 64
2009-04-24 07:41:11 51°12.268 2°48.736 4.4 309 11.5 102010 64
2009-04-24 07:41:16 51°12.266 2°48.729 4.1 267 11.5 102010 64
2009-04-24 07:41:21 51°12.265 2°48.723 5.2 304 11.5 102010 64
2009-04-24 07:41:26 51°12.263 2°48.716 5 270 11.5 102010 65
2009-04-24 07:41:31 51°12.262 2°48.71 4.3 304 11.5 102010 65
2009-04-24 07:41:36 51°12.261 2°48.703 4 269 11.5 102010 65
2009-04-24 07:41:40 51°12.259 2°48.698 4.6 309 11.5 102010 65
2009-04-24 07:41:46 51°12.258 2°48.69 4.3 268 11.5 102010 65
2009-04-24 07:41:51 51°12.257 2°48.684 3.8 310 11.5 102010 65
2009-04-24 07:41:56 51°12.255 2°48.677 4.7 24 11.5 102010 65
2009-04-24 07:42:00 51°12.254 2°48.672 4.4 63 11.5 102010 65
2009-04-24 07:42:06 51°12.252 2°48.664 4.5 268 11.5 102010 66
2009-04-24 07:42:11 51°12.251 2°48.657 3.8 306 11.5 102010 66
2009-04-24 07:42:16 51°12.25 2°48.651 4.5 269 11.6 102010 66
2009-04-24 07:42:21 51°12.249 2°48.644 5.4 304 11.6 102010 66
2009-04-24 07:42:26 51°12.247 2°48.637 5.6 24 11.6 102010 67
2009-04-24 07:42:31 51°12.246 2°48.63 5.4 305 11.6 102010 67
2009-04-24 07:42:35 51°12.245 2°48.625 5 270 11.6 102010 68
2009-04-24 07:42:41 51°12.244 2°48.617 4 301 11.6 102010 68
2009-04-24 07:42:46 51°12.243 2°48.611 3.3 265 11.6 102010 68
2009-04-24 07:42:51 51°12.241 2°48.605 3.2 280 11.6 102010 68
2009-04-24 07:42:55 51°12.24 2°48.6 3.8 265 11.6 102010 68
2009-04-24 07:43:01 51°12.239 2°48.593 3.7 310 11.6 102010 68
2009-04-24 07:43:06 51°12.238 2°48.587 4.2 27 11.6 102010 68
2009-04-24 07:43:11 51°12.236 2°48.581 4 312 11.6 102010 68
2009-04-24 07:43:15 51°12.235 2°48.576 4.8 270 11.6 102010 68
2009-04-24 07:43:21 51°12.234 2°48.569 3.1 308 11.6 102010 68
2009-04-24 07:43:25 51°12.233 2°48.565 3.1 267 11.6 102010 68
2009-04-24 07:43:31 51°12.231 2°48.558 3.2 309 11.6 102010 68
2009-04-24 07:43:36 51°12.23 2°48.553 4.1 265 11.6 102010 68
2009-04-24 07:43:41 51°12.229 2°48.548 3.7 308 11.6 102010 68
2009-04-24 07:43:46 51°12.227 2°48.542 3.6 266 11.6 102010 68
2009-04-24 07:43:51 51°12.226 2°48.537 3.2 304 11.6 102010 68
2009-04-24 07:43:56 51°12.225 2°48.532 4 264 11.6 102010 68
2009-04-24 07:44:01 51°12.223 2°48.527 3.5 303 11.6 102010 68
2009-04-24 07:44:06 51°12.222 2°48.522 3.8 264 11.6 102010 67
2009-04-24 07:44:11 51°12.221 2°48.517 3.2 310 11.6 102010 67
2009-04-24 07:44:16 51°12.219 2°48.512 3.3 265 11.6 102010 67
2009-04-24 07:44:21 51°12.218 2°48.508 3.7 301 11.6 102010 67
2009-04-24 07:44:26 51°12.217 2°48.503 3.2 268 11.6 102010 68
2009-04-24 07:44:31 51°12.215 2°48.499 4.1 302 11.6 102010 68
2009-04-24 07:44:35 51°12.214 2°48.495 3.8 265 11.6 102010 68
2009-04-24 07:44:41 51°12.213 2°48.489 3.4 308 11.6 102010 68
2009-04-24 07:44:46 51°12.211 2°48.485 3.6 264 11.6 102010 68
2009-04-24 07:44:51 51°12.21 2°48.481 3.8 280 11.6 102010 68
2009-04-24 07:44:56 51°12.209 2°48.476 4.2 262 11.6 102010 67
2009-04-24 07:45:01 51°12.208 2°48.472 3.8 307 11.6 102010 67
2009-04-24 07:45:06 51°12.207 2°48.468 4.2 262 11.6 102010 67
2009-04-24 07:45:11 51°12.205 2°48.464 4.2 302 11.6 102010 67
2009-04-24 07:45:16 51°12.204 2°48.459 3.7 262 11.6 102010 67
2009-04-24 07:45:21 51°12.203 2°48.455 3.9 306 11.6 102010 67
2009-04-24 07:45:26 51°12.201 2°48.451 5.8 260 11.6 102010 67
2009-04-24 07:45:31 51°12.2 2°48.446 5.3 304 11.6 102010 67
2009-04-24 07:45:36 51°12.198 2°48.441 4.6 253 11.6 102000 68
2009-04-24 07:45:40 51°12.196 2°48.437 4.8 310 11.6 102000 68
2009-04-24 07:45:46 51°12.194 2°48.432 6.6 253 11.6 102010 68
2009-04-24 07:45:51 51°12.192 2°48.427 5 303 11.6 102010 68
2009-04-24 07:45:56 51°12.189 2°48.423 5.8 250 11.6 102010 68
2009-04-24 07:46:01 51°12.187 2°48.418 6.2 305 11.6 102010 68
2009-04-24 07:46:06 51°12.184 2°48.414 5.9 19 11.7 102000 68
2009-04-24 07:46:11 51°12.181 2°48.409 5.3 304 11.7 102000 68
2009-04-24 07:46:16 51°12.179 2°48.405 5.3 248 11.7 102010 68
2009-04-24 07:46:21 51°12.176 2°48.401 5.2 303 11.7 102010 68
2009-04-24 07:46:26 51°12.172 2°48.397 5.5 23 11.7 102000 68
2009-04-24 07:46:31 51°12.169 2°48.393 4.9 304 11.7 102000 68
2009-04-24 07:46:35 51°12.166 2°48.391 4.8 27 11.7 102000 68
2009-04-24 07:46:41 51°12.162 2°48.387 3.3 303 11.7 102000 68
2009-04-24 07:46:46 51°12.159 2°48.384 5.8 26 11.7 102000 68
2009-04-24 07:46:51 51°12.155 2°48.381 5.6 279 11.7 102000 68
2009-04-24 07:46:55 51°12.152 2°48.379 4.6 25 11.7 102000 69
2009-04-24 07:47:01 51°12.147 2°48.377 5.5 307 11.7 102000 69
2009-04-24 07:47:06 51°12.143 2°48.375 5.3 317 11.7 102000 69
2009-04-24 07:47:11 51°12.139 2°48.374 5.3 308 11.7 102000 69
2009-04-24 07:47:15 51°12.136 2°48.373 7 319 11.7 102000 69
2009-04-24 07:47:21 51°12.131 2°48.372 7 303 11.7 102000 69
2009-04-24 07:47:26 51°12.128 2°48.371 5.8 323 11.8 102000 69
2009-04-24 07:47:31 51°12.124 2°48.371 6.2 325 11.8 102000 69
2009-04-24 07:47:35 51°12.121 2°48.372 6.4 326 11.8 102000 70
2009-04-24 07:47:41 51°12.117 2°48.372 5.8 329 11.8 102000 70
2009-04-24 07:47:46 51°12.114 2°48.373 5 328 11.8 102000 68
2009-04-24 07:47:51 51°12.11 2°48.374 5.7 328 11.8 102000 68
2009-04-24 07:47:56 51°12.107 2°48.376 6 333 11.7 102000 67
2009-04-24 07:48:01 51°12.105 2°48.378 6.3 336 11.7 102000 67
2009-04-24 07:48:06 51°12.102 2°48.38 6.3 339 11.8 102000 67
2009-04-24 07:48:11 51°12.1 2°48.382 5.6 338 11.8 102000 67
2009-04-24 07:48:16 51°12.098 2°48.385 5.2 341 11.8 102000 67
2009-04-24 07:48:21 51°12.096 2°48.388 5.9 347 11.8 102000 67
2009-04-24 07:48:26 51°12.095 2°48.391 6 350 11.8 102000 67
2009-04-24 07:48:31 51°12.094 2°48.395 6.4 348 11.8 102000 67
2009-04-24 07:48:36 51°12.093 2°48.398 6.5 353 11.7 102000 67
2009-04-24 07:48:41 51°12.092 2°48.401 5.9 351 11.7 102000 67
2009-04-24 07:48:46 51°12.092 2°48.405 6.2 356 11.8 102000 68
2009-04-24 07:48:51 51°12.092 2°48.408 6.1 359 11.8 102000 68
2009-04-24 07:48:56 51°12.092 2°48.41 5.7 357 11.7 102000 67
2009-04-24 07:49:01 51°12.093 2°48.412 5.4 1 11.7 102000 67
2009-04-24 07:49:06 51°12.093 2°48.414 5 -999 11.7 102000 67
2009-04-24 07:49:11 51°12.093 2°48.416 6.2 3 11.7 102000 67
2009-04-24 07:49:16 51°12.093 2°48.417 4.4 4 11.7 101990 67
2009-04-24 07:49:20 51°12.094 2°48.418 5.1 3 11.7 101990 67
2009-04-24 07:49:26 51°12.094 2°48.42 5.6 3 11.7 102000 68
2009-04-24 07:49:31 51°12.095 2°48.421 5.3 5 11.7 102000 68
2009-04-24 07:49:36 51°12.095 2°48.422 5 4 11.6 102000 69
2009-04-24 07:49:40 51°12.096 2°48.422 4.8 7 11.6 102000 69
2009-04-24 07:49:46 51°12.096 2°48.423 4.5 4 11.6 101990 68
2009-04-24 07:49:51 51°12.097 2°48.423 5 6 11.6 101990 68
2009-04-24 07:49:56 51°12.097 2°48.423 5.3 5 11.6 101990 68
2009-04-24 07:50:00 51°12.098 2°48.423 3.9 3 11.6 101990 68
2009-04-24 07:50:06 51°12.098 2°48.423 5.3 10 11.5 102000 67
2009-04-24 07:50:11 51°12.099 2°48.423 4.5 5 11.5 102000 67
2009-04-24 07:50:16 51°12.099 2°48.423 5.5 8 11.6 102000 67
2009-04-24 07:50:21 51°12.1 2°48.423 4.4 4 11.6 102000 67
2009-04-24 07:50:26 51°12.101 2°48.423 4.7 7 11.6 102000 67
2009-04-24 07:50:31 51°12.101 2°48.422 6.1 13 11.6 102000 67
2009-04-24 07:50:36 51°12.102 2°48.422 6.1 15 11.6 101990 68
2009-04-24 07:50:41 51°12.102 2°48.421 6.4 11 11.6 101990 68
2009-04-24 07:50:46 51°12.103 2°48.421 6 13 11.6 102000 69
2009-04-24 07:50:51 51°12.103 2°48.42 5.7 15 11.6 102000 69
2009-04-24 07:50:56 51°12.104 2°48.419 5.8 13 11.6 101990 69
2009-04-24 07:51:01 51°12.104 2°48.418 5.7 11 11.6 101990 69
2009-04-24 07:51:06 51°12.105 2°48.417 6.1 9 11.6 101990 69
2009-04-24 07:51:11 51°12.105 2°48.417 5.5 13 11.6 101990 69
2009-04-24 07:51:16 51°12.105 2°48.416 5.9 10 11.5 101990 68
2009-04-24 07:51:21 51°12.106 2°48.415 5.6 10 11.5 101990 68
2009-04-24 07:51:26 51°12.106 2°48.414 5.5 11 11.6 102000 67
2009-04-24 07:51:31 51°12.106 2°48.413 5.6 8 11.6 102000 67
2009-04-24 07:51:36 51°12.107 2°48.411 5.3 12 11.6 102000 67
2009-04-24 07:51:40 51°12.107 2°48.411 6 11 11.6 102000 67
2009-04-24 07:51:46 51°12.107 2°48.409 4.8 8 11.6 102000 68
2009-04-24 07:51:51 51°12.107 2°48.408 5.5 10 11.6 102000 68
2009-04-24 07:51:55 51°12.108 2°48.407 5.5 14 11.6 102000 69
2009-04-24 07:52:01 51°12.108 2°48.406 5.1 13 11.6 102000 69
2009-04-24 07:52:06 51°12.108 2°48.405 5.7 18 11.6 101990 69
2009-04-24 07:52:11 51°12.108 2°48.403 4.7 21 11.6 101990 69
2009-04-24 07:52:16 51°12.108 2°48.402 4.5 20 11.6 102000 69
2009-04-24 07:52:21 51°12.108 2°48.401 4.7 21 11.6 102000 69
2009-04-24 07:52:26 51°12.108 2°48.4 4.9 22 11.6 101990 70
2009-04-24 07:52:31 51°12.109 2°48.398 5.6 16 11.6 101990 70
2009-04-24 07:52:36 51°12.108 2°48.397 5.1 17 11.6 102000 70
2009-04-24 07:52:41 51°12.108 2°48.396 5.2 15 11.6 102000 70
2009-04-24 07:52:46 51°12.108 2°48.395 5.2 17 11.6 102000 68
2009-04-24 07:52:51 51°12.109 2°48.393 5.8 19 11.6 102000 68
2009-04-24 07:52:56 51°12.109 2°48.392 5.6 20 11.6 102000 68
2009-04-24 07:53:01 51°12.109 2°48.39 5.3 18 11.6 102000 68
2009-04-24 07:53:06 51°12.109 2°48.39 5.4 17 11.6 101990 67
2009-04-24 07:53:11 51°12.11 2°48.389 4.9 11 11.6 101990 67
2009-04-24 07:53:16 51°12.111 2°48.389 5.4 12 11.6 101990 67
2009-04-24 07:53:21 51°12.111 2°48.389 6.2 10 11.6 101990 67
2009-04-24 07:53:26 51°12.113 2°48.39 5.7 7 11.6 101990 67
2009-04-24 07:53:31 51°12.114 2°48.39 5.3 4 11.6 101990 67
2009-04-24 07:53:36 51°12.116 2°48.392 4.8 6 11.6 101990 66
2009-04-24 07:53:40 51°12.117 2°48.393 4.4 4 11.6 101990 66
2009-04-24 07:53:46 51°12.119 2°48.396 4.9 5 11.7 101990 67
2009-04-24 07:53:51 51°12.12 2°48.399 5.6 5 11.7 101990 67
2009-04-24 07:53:55 51°12.122 2°48.402 5.8 3 11.7 102000 67
2009-04-24 07:54:00 51°12.123 2°48.405 5.3 2 11.7 102000 67
2009-04-24 07:54:06 51°12.125 2°48.411 5.9 1 11.7 101990 66
2009-04-24 07:54:11 51°12.127 2°48.415 6 360 11.7 101990 66
2009-04-24 07:54:16 51°12.129 2°48.42 6.9 359 11.7 101990 66
2009-04-24 07:54:21 51°12.13 2°48.425 6.5 -999 11.7 101990 66
2009-04-24 07:54:26 51°12.131 2°48.431 7.1 359 11.7 101990 66
2009-04-24 07:54:31 51°12.132 2°48.437 7 1 11.7 101990 66
2009-04-24 07:54:35 51°12.134 2°48.443 6.8 3 11.7 101990 66
2009-04-24 07:54:40 51°12.135 2°48.45 6.7 360 11.7 101990 66
2009-04-24 07:54:46 51°12.137 2°48.459 7 -999 11.7 101990 65
2009-04-24 07:54:51 51°12.139 2°48.468 7.4 -999 11.7 101990 65
2009-04-24 07:54:55 51°12.14 2°48.474 8.2 357 11.7 101990 67
2009-04-24 07:55:01 51°12.142 2°48.485 7 352 11.7 101990 67
2009-04-24 07:55:06 51°12.144 2°48.494 7.1 350 11.7 101980 65
2009-04-24 07:55:11 51°12.147 2°48.503 6.8 351 11.7 101980 65
2009-04-24 07:55:16 51°12.15 2°48.512 7 353 11.7 101980 66
2009-04-24 07:55:21 51°12.152 2°48.521 7.3 352 11.7 101980 66
2009-04-24 07:55:26 51°12.155 2°48.531 7.3 351 11.7 101990 68
2009-04-24 07:55:31 51°12.157 2°48.541 7.3 352 11.7 101990 68
2009-04-24 07:55:36 51°12.159 2°48.551 7.6 350 11.7 101990 69
2009-04-24 07:55:41 51°12.162 2°48.561 9.5 353 11.7 101990 69
2009-04-24 07:55:46 51°12.164 2°48.571 8.9 355 11.7 101990 67
2009-04-24 07:55:51 51°12.166 2°48.58 8.6 356 11.7 101990 67
2009-04-24 07:55:56 51°12.168 2°48.588 8.1 355 11.6 101980 67
2009-04-24 07:56:01 51°12.17 2°48.596 7.9 354 11.6 101980 67
2009-04-24 07:56:06 51°12.171 2°48.603 7.6 355 11.7 101980 67
2009-04-24 07:56:11 51°12.172 2°48.61 7 355 11.7 101980 67
2009-04-24 07:56:15 51°12.172 2°48.614 7 356 11.6 101980 66
2009-04-24 07:56:21 51°12.173 2°48.618 7 355 11.6 101980 66
2009-04-24 07:56:26 51°12.173 2°48.622 6.8 357 11.6 101980 65
2009-04-24 07:56:31 51°12.174 2°48.625 7.6 356 11.6 101980 65
2009-04-24 07:56:36 51°12.174 2°48.628 7.5 358 11.6 101990 65
2009-04-24 07:56:41 51°12.174 2°48.63 7.2 355 11.6 101990 65
2009-04-24 07:56:46 51°12.174 2°48.633 6.9 356 11.6 101990 66
2009-04-24 07:56:51 51°12.174 2°48.635 6.5 359 11.6 101990 66
2009-04-24 07:56:55 51°12.174 2°48.637 6.9 357 11.6 101990 65
2009-04-24 07:57:00 51°12.174 2°48.639 7.2 352 11.6 101990 65
2009-04-24 07:57:06 51°12.175 2°48.641 7.2 356 11.6 101990 65
2009-04-24 07:57:11 51°12.175 2°48.643 6.2 355 11.6 101990 65
2009-04-24 07:57:16 51°12.175 2°48.644 7.1 358 11.6 101990 66
2009-04-24 07:57:21 51°12.175 2°48.646 7.5 358 11.6 101990 66
2009-04-24 07:57:26 51°12.175 2°48.647 7 2 11.6 101990 67
2009-04-24 07:57:31 51°12.175 2°48.648 6.6 3 11.6 101990 67
2009-04-24 07:57:36 51°12.176 2°48.649 6.6 -999 11.6 101990 66
2009-04-24 07:57:41 51°12.176 2°48.65 5.9 1 11.6 101990 66
2009-04-24 07:57:46 51°12.176 2°48.651 6 1 11.6 101990 65
2009-04-24 07:57:51 51°12.176 2°48.652 5.3 1 11.6 101990 65
2009-04-24 07:57:56 51°12.177 2°48.653 5.7 2 11.6 101990 65
2009-04-24 07:58:01 51°12.177 2°48.653 6.8 358 11.6 101990 65
2009-04-24 07:58:06 51°12.177 2°48.654 6.4 1 11.7 101990 66
2009-04-24 07:58:11 51°12.177 2°48.654 6.3 4 11.7 101990 66
2009-04-24 07:58:16 51°12.177 2°48.655 5.9 1 11.6 101990 66
2009-04-24 07:58:21 51°12.178 2°48.655 5.7 1 11.6 101990 66
2009-04-24 07:58:26 51°12.178 2°48.655 6.5 360 11.7 101990 67
2009-04-24 07:58:31 51°12.178 2°48.655 5.6 2 11.7 101990 67
2009-04-24 07:58:36 51°12.178 2°48.655 5.3 1 11.7 101990 67
2009-04-24 07:58:40 51°12.178 2°48.655 7.7 1 11.7 101990 67
2009-04-24 07:58:46 51°12.179 2°48.655 6.9 3 11.7 101990 66
2009-04-24 07:58:51 51°12.179 2°48.655 5.7 6 11.7 101990 66
2009-04-24 07:58:55 51°12.179 2°48.654 5.3 5 11.7 101990 66
2009-04-24 07:59:01 51°12.179 2°48.654 5.7 2 11.7 101990 66
2009-04-24 07:59:06 51°12.179 2°48.653 5.6 6 11.6 101990 65
2009-04-24 07:59:11 51°12.179 2°48.653 5.6 4 11.6 101990 65
2009-04-24 07:59:16 51°12.18 2°48.652 6.2 7 11.6 101990 65
2009-04-24 07:59:20 51°12.18 2°48.651 6.1 7 11.6 101990 65
2009-04-24 07:59:26 51°12.18 2°48.651 6.8 7 11.6 101990 64
2009-04-24 07:59:31 51°12.18 2°48.65 5.4 8 11.6 101990 64
2009-04-24 07:59:36 51°12.18 2°48.649 6.5 8 11.6 101990 64
2009-04-24 07:59:41 51°12.18 2°48.648 6.1 7 11.6 101990 64
2009-04-24 07:59:46 51°12.18 2°48.647 5.8 9 11.6 101990 64
2009-04-24 07:59:51 51°12.18 2°48.646 5.6 12 11.6 101990 64
2009-04-24 07:59:56 51°12.18 2°48.645 5.3 10 11.7 101990 65
2009-04-24 08:00:01 51°12.181 2°48.644 5.6 9 11.7 101990 65
2009-04-24 08:00:06 51°12.181 2°48.643 6.1 12 11.7 101990 65
2009-04-24 08:00:11 51°12.181 2°48.642 5.7 13 11.7 101990 65
2009-04-24 08:00:16 51°12.181 2°48.641 6.2 13 11.7 101990 66
2009-04-24 08:00:21 51°12.181 2°48.64 5.2 8 11.7 101990 66
2009-04-24 08:00:26 51°12.181 2°48.639 5.5 8 11.7 101990 67
2009-04-24 08:00:31 51°12.181 2°48.637 5.8 8 11.7 101990 67
2009-04-24 08:00:36 51°12.181 2°48.636 6.3 9 11.7 101990 66
2009-04-24 08:00:41 51°12.181 2°48.635 6 10 11.7 101990 66
2009-04-24 08:00:46 51°12.181 2°48.634 6.2 7 11.7 101990 67
2009-04-24 08:00:51 51°12.181 2°48.633 7 10 11.7 101990 67
2009-04-24 08:00:55 51°12.181 2°48.632 6.7 11 11.7 101990 67
2009-04-24 08:01:01 51°12.181 2°48.63 6.6 10 11.7 101990 67
2009-04-24 08:01:06 51°12.181 2°48.629 6.1 12 11.7 101990 67
2009-04-24 08:01:11 51°12.181 2°48.627 7.3 10 11.7 101990 67
2009-04-24 08:01:15 51°12.181 2°48.626 6.5 10 11.7 101990 67
2009-04-24 08:01:21 51°12.18 2°48.624 5.8 8 11.7 101990 67
2009-04-24 08:01:26 51°12.18 2°48.623 6.3 7 11.7 101990 67
2009-04-24 08:01:31 51°12.18 2°48.621 7 7 11.7 101990 67
2009-04-24 08:01:36 51°12.18 2°48.62 6.9 10 11.7 101990 67
2009-04-24 08:01:41 51°12.18 2°48.618 6.2 11 11.7 101990 67
2009-04-24 08:01:46 51°12.18 2°48.616 6 11 11.7 101990 65
2009-04-24 08:01:51 51°12.18 2°48.615 5.8 8 11.7 101990 65
2009-04-24 08:01:56 51°12.18 2°48.613 5.6 14 11.7 101990 65
2009-04-24 08:02:00 51°12.18 2°48.612 6.2 15 11.7 101990 65
2009-04-24 08:02:06 51°12.18 2°48.609 5.8 8 11.7 101990 65
2009-04-24 08:02:11 51°12.179 2°48.608 6.4 8 11.7 101990 65
2009-04-24 08:02:16 51°12.179 2°48.606 5.8 9 11.7 101990 64
2009-04-24 08:02:21 51°12.179 2°48.604 7.2 9 11.7 101990 64
2009-04-24 08:02:26 51°12.179 2°48.603 7.2 10 11.8 101990 64
2009-04-24 08:02:31 51°12.179 2°48.601 7.3 15 11.8 101990 64
2009-04-24 08:02:36 51°12.179 2°48.599 7.1 16 11.8 101990 65
2009-04-24 08:02:40 51°12.178 2°48.597 6.3 16 11.8 101990 65
2009-04-24 08:02:46 51°12.178 2°48.595 7 18 11.8 101990 65
2009-04-24 08:02:51 51°12.178 2°48.593 6.5 22 11.8 101990 65
2009-04-24 08:02:55 51°12.178 2°48.591 6.3 23 11.8 101990 65
2009-04-24 08:03:01 51°12.178 2°48.589 5.7 22 11.8 101990 65
2009-04-24 08:03:06 51°12.177 2°48.587 5.7 18 11.8 101990 66
2009-04-24 08:03:11 51°12.177 2°48.585 5.9 19 11.8 101990 66
2009-04-24 08:03:16 51°12.177 2°48.583 5.8 16 11.8 101990 65
2009-04-24 08:03:20 51°12.177 2°48.581 5.3 7 11.8 101990 65
2009-04-24 08:03:26 51°12.177 2°48.579 5.8 15 11.8 101990 65
2009-04-24 08:03:31 51°12.176 2°48.576 6 15 11.8 101990 65
2009-04-24 08:03:36 51°12.176 2°48.574 6.7 19 11.8 101990 65
2009-04-24 08:03:41 51°12.176 2°48.572 5.5 20 11.8 101990 65
2009-04-24 08:03:46 51°12.176 2°48.57 5.4 21 11.8 101990 66
2009-04-24 08:03:51 51°12.176 2°48.568 6 18 11.8 101990 66
2009-04-24 08:03:56 51°12.175 2°48.566 6 16 11.8 101990 65
2009-04-24 08:04:00 51°12.175 2°48.564 7 14 11.8 101990 65
2009-04-24 08:04:06 51°12.175 2°48.561 6.8 16 11.8 101980 65
2009-04-24 08:04:11 51°12.175 2°48.559 6.9 17 11.8 101980 65
2009-04-24 08:04:16 51°12.175 2°48.557 6.6 17 11.8 101980 65
2009-04-24 08:04:20 51°12.175 2°48.555 6.7 19 11.8 101980 65
2009-04-24 08:04:26 51°12.174 2°48.552 7 14 11.9 101980 65
2009-04-24 08:04:31 51°12.174 2°48.55 6.9 18 11.9 101980 65
2009-04-24 08:04:36 51°12.174 2°48.548 6.5 20 11.9 101990 66
2009-04-24 08:04:41 51°12.173 2°48.546 5.8 20 11.9 101990 66
2009-04-24 08:04:46 51°12.173 2°48.543 5.6 20 11.9 101980 65
2009-04-24 08:04:51 51°12.173 2°48.541 6.8 16 11.9 101980 65
2009-04-24 08:04:56 51°12.172 2°48.539 6.4 19 11.9 101980 64
2009-04-24 08:05:00 51°12.172 2°48.537 7.1 18 11.9 101980 64
2009-04-24 08:05:06 51°12.172 2°48.534 5.7 18 11.9 101980 64
2009-04-24 08:05:11 51°12.172 2°48.532 6.1 18 11.9 101980 64
2009-04-24 08:05:16 51°12.172 2°48.53 6.2 14 11.9 101980 64
2009-04-24 08:05:21 51°12.171 2°48.527 6 12 11.9 101980 64
2009-04-24 08:05:26 51°12.171 2°48.525 6.1 16 11.9 101980 64
2009-04-24 08:05:31 51°12.171 2°48.523 6 22 11.9 101980 64
2009-04-24 08:05:36 51°12.171 2°48.521 6.4 22 11.9 101980 64
2009-04-24 08:05:40 51°12.17 2°48.519 5.7 21 11.9 101980 64
2009-04-24 08:05:46 51°12.17 2°48.516 6.1 18 11.9 101980 65
2009-04-24 08:05:51 51°12.17 2°48.514 5.7 20 11.9 101980 65
2009-04-24 08:05:55 51°12.169 2°48.512 4.9 21 11.9 101980 66
2009-04-24 08:06:00 51°12.169 2°48.51 6.4 21 11.9 101980 66
2009-04-24 08:06:06 51°12.169 2°48.507 5.5 16 12 101980 67
2009-04-24 08:06:11 51°12.169 2°48.505 4.9 16 12 101980 67
2009-04-24 08:06:16 51°12.168 2°48.503 4.5 22 11.9 101980 67
2009-04-24 08:06:21 51°12.168 2°48.501 4.9 18 11.9 101980 67
2009-04-24 08:06:26 51°12.168 2°48.498 5.1 19 11.9 101980 66
2009-04-24 08:06:31 51°12.167 2°48.496 5.4 13 11.9 101980 66
2009-04-24 08:06:36 51°12.167 2°48.494 5.3 16 12 101980 67
2009-04-24 08:06:40 51°12.167 2°48.492 5.2 20 12 101980 67
2009-04-24 08:06:46 51°12.166 2°48.49 5.2 20 12 101980 67
2009-04-24 08:06:51 51°12.166 2°48.488 6.1 10 12 101980 67
2009-04-24 08:06:55 51°12.166 2°48.488 6.4 10 12 101980 67
2009-04-24 08:07:01 51°12.167 2°48.488 6 10 12 101980 67
2009-04-24 08:07:06 51°12.167 2°48.488 7.1 10 12 101980 67
2009-04-24 08:07:11 51°12.168 2°48.489 6.2 8 12 101980 67
2009-04-24 08:07:16 51°12.168 2°48.491 6.2 6 12 101980 65
2009-04-24 08:07:21 51°12.169 2°48.494 6.3 9 12 101980 65
2009-04-24 08:07:26 51°12.171 2°48.497 7.5 9 11.9 101980 65